CubeSats
NORAD ID: 31125
Int'l Code: 2007-012J
Perigee: 657.3 km
Apogee: 721.4 km
Inclination: 97.8 °
Period: 98.4 minutes
Semi major axis: 7060 km
Launch date: April 17, 2007
Source: Saudi Arabia (SAUD)
Two Line Element Set (TLE):
1 31125U 07012J 13138.12541328 .00000764 00000-0 15422-3 0 8706
2 31125 097.8113 165.6106 0045401 050.7967 341.7358 14.63403936324948
Source:
NASA's NSSDC Master Catalog entry for SAUDICOMSAT 3